Regional Weather Roundup
Issued by NWS Newport/Morehead, NC

Current Version | Previous Version | Text Only | Print | Product List | Glossary On
Versions: 1 2 3 4 5 6 7 8 9 10 11 12 13 14 15 16 17 18 19 20 21 22 23 24 25 26 27 28 29 30 31 32 33 34 35 36 37 38 39 40 41 42 43 44 45 46 47 48 49 50
000
ASUS42 KMHX 062212
RWRMHX
WEATHER ROUNDUP FOR EASTERN NORTH CAROLINA
NATIONAL WEATHER SERVICE NEWPORT/MOREHEAD CITY NC
500 PM EST FRI MAR 06 2015

NOTE: "FAIR" INDICATES FEW OR NO CLOUDS BELOW 12,000 FEET
WITH NO SIGNIFICANT WEATHER AND/OR OBSTRUCTIONS TO VISIBILITY

NCZ015>017-031-032-045>047-102-103-062300-
NORTH COAST

CITY           SKY/WX    TMP DP  RH WIND       PRES   REMARKS
EDENTON        SUNNY     34  18  53 N7        30.43S
ELIZABETH CITY SUNNY     31  19  61 N13       30.44S
KITTY HAWK     CLOUDY    28  23  82 N12G20    30.40S WCI  18
MANTEO         CLOUDY    28  23  81 N20G26    30.42S WCI  15

$$

NCZ045>047-081-094-103-104-062300-
CENTRAL COAST

CITY           SKY/WX    TMP DP  RH WIND       PRES   REMARKS
FRISCO         CLOUDY    31  27  85 N12G26    30.37S
SWANQUARTER      N/A     34 N/A N/A N8G16     30.36S

$$

NCZ095-097-098-100-101-062300-
SOUTHERN COAST

CITY           SKY/WX    TMP DP  RH WIND       PRES   REMARKS
BEAUFORT       CLOUDY    36  20  52 N13G21    30.39R
CEDAR ISLAND     N/A     34 N/A N/A N16G22    30.41S
JACKSONVILLE   CLOUDY    41  23  48 N10       30.38S
PINEY ISLAND     N/A    N/A N/A N/A MISG      30.39S
WILMINGTON     CLOUDY    42  23  46 N10       30.38R


$$

NCZ011>013-027>030-043-044-078>080-089-090>093-098-062300-
COASTAL PLAIN

CITY           SKY/WX    TMP DP  RH WIND       PRES   REMARKS
AHOSKIE        SUNNY     33  14  46 N5        30.44S
CLINTON        SUNNY     39  19  43 NE6       30.42S
ELIZABETHTOWN  SUNNY     40  18  40 CALM      30.40R
GOLDSBORO      SUNNY     37  19  46 N7        30.40S
GREENVILLE     SUNNY     36  18  48 NW7       30.42S
HAVELOCK       CLOUDY    38  19  46 N14       30.40R
KENANSVILLE    SUNNY     37  17  43 N6        30.42S
KINSTON        SUNNY     37  19  48 N9        30.42S
NEW BERN       SUNNY     40  20  44 N12       30.40S
RICHLANDS      SUNNY     39  19  45 N9        30.40S
ROCKY MOUNT    SUNNY     36  14  40 N7        30.43S
WASHINGTON     SUNNY     36  19  49 NW8       30.41F
WHITEVILLE     SUNNY     43  20  39 N6        30.39R

$$

AMZ130-135-150-152-154-156-158-170-250-252-270-ANZ085-086-088-633-658-670-062300-
MARINE OBSERVATIONS

STATION/POSITION TIME  TEMP    WIND        PRES    WAVE   SWELL
                       AIR SEA DIR/SP/G            HT/PER HT/PER
                 (UTC) (F)     (DEG/KT/KT) (MB)    (FT/S) (FT/S)
CHESAPEAKE LIGHT 2100   26     360/ 18/ 20 1031.6
64 E VA BEACH    2150   36 51  360/ 21/ 25 1028.0    7/ 8   3/ 8
DUCK             2100   27 35   10/ 21/ 24 1029.0
2 E DUCK         2111      35                N/A     6/ 8   2/11
10 NE DUCK       2122      37                N/A     8/ 8   2/11
OREGON INLET     2100   29 38  350/ 17/ 25 1029.4
HATTERAS CG      2100   31 43  360/ 25/ 29 1028.7
CAPE LOOKOUT     2200           10/ 15/ 18 1028.5
BEAUFORT LAB     2100   36 47   10/ 13/ 16 1027.7
27 SE WRIGHTSVLE NOT AVBL
5 SE WRIGHTSVLE  NOT AVBL
225 S CAPE HAT   2150   63 72   40/ 17/ 21 1021.8    9/10   7/10
41 SE CHARLESTON 2150   44 67   10/ 19/ 25 1027.2    9/ 7   3/16

$$


USA.gov is the U.S. government's official web portal to all federal, state and local government web resources and services.